Weather History for Seward, AK

Change the Weather History Date:

Tuesday, February 28, 2012

  Actual Average Record
Temperature  
Mean Temperature 26 °F -  
Max Temperature 32 °F 34 °F 51 °F (1962)
Min Temperature 19 °F 23 °F 3 °F (1971)
Degree Days  
Heating Degree Days 40    
Moisture  
Dew Point 13 °F    
Average Humidity 62    
Maximum Humidity 68    
Minimum Humidity 55    
Precipitation  
Precipitation 0.00 in - - ()
Sea Level Pressure  
Sea Level Pressure 29.49 in    
Wind  
Wind Speed 23 mph (North)    
Max Wind Speed 31 mph    
Max Gust Speed 41 mph    
Visibility 9 miles    
Events Snow    
Averages and records for this station are not official NWS values.
T = Trace of Precipitation, MM = Missing Value Source: NWS Daily Summary

Daily Weather History Graph

Daily Weather History Graph

Search for Another Location

Airport:

Trip Planner

Search our weather history database for the weather conditions in past years. The results will help you decide how hot, cold, wet, or windy it might be!

Date:

Astronomy

Feb. 28, 2012 Rise Set
Actual Time 7:59 AM AKST 6:21 PM AKST
Civil Twilight 7:17 AM AKST 7:03 PM AKST
Nautical Twilight 6:29 AM AKST 7:52 PM AKST
Astronomical Twilight 5:40 AM AKST 8:41 PM AKST
Moon 9:17 AM AKST 2:17 AM AKST
Length of Visible Light 11h 46m
Length of Day
10h 21m
Waxing Crescent, 39% of the Moon is Illuminated
Feb 28
Waxing Crescent
Feb 29
First Quarter
Mar 8
Full
Mar 14
Last Quarter
Mar 22
New

Hourly Weather History & Observations

Time (AKST) Temp. Windchill Dew Point Humidity Pressure Visibility Wind Dir Wind Speed Gust Speed Precip Events Conditions
12:53 AM 32.0 °F 21.2 °F 19.9 °F 61% 29.34 in 10.0 mi NNW 16.1 mph 25.3 mph N/A   Mostly Cloudy
1:53 AM 30.9 °F 18.1 °F 19.0 °F 61% 29.35 in 10.0 mi NNW 21.9 mph 31.1 mph N/A   Overcast
3:53 AM 28.0 °F 14.3 °F 16.0 °F 61% 29.38 in 10.0 mi NNW 21.9 mph 34.5 mph N/A   Overcast
4:53 AM 27.0 °F 12.8 °F 15.1 °F 61% 29.39 in 8.0 mi NNW 21.9 mph 40.3 mph 0.00 in   Scattered Clouds
5:53 AM 26.1 °F 11.0 °F 14.0 °F 60% 29.42 in 10.0 mi North 24.2 mph 33.4 mph 0.00 in   Mostly Cloudy
6:53 AM 25.0 °F 7.8 °F 12.9 °F 60% 29.44 in 8.0 mi NNW 31.1 mph 39.1 mph 0.00 in   Overcast
7:53 AM 24.1 °F 8.7 °F 12.0 °F 60% 29.46 in 9.0 mi North 23.0 mph 35.7 mph 0.00 in   Overcast
8:53 AM 24.1 °F 7.1 °F 10.9 °F 57% 29.48 in 9.0 mi North 28.8 mph 36.8 mph N/A   Overcast
9:53 AM 21.9 °F 4.5 °F 10.9 °F 63% 29.49 in 5.0 mi North 27.6 mph 40.3 mph N/A Snow Blowing Snow
10:53 AM 23.0 °F 5.1 °F 10.9 °F 60% 29.52 in 9.0 mi North 31.1 mph 41.4 mph N/A   Mostly Cloudy
11:53 AM 23.0 °F 6.0 °F 10.9 °F 60% 29.52 in 9.0 mi North 27.6 mph 36.8 mph N/A   Clear
12:53 PM 24.1 °F - 10.9 °F 57% 29.51 in 10.0 mi North - - N/A   Clear
1:53 PM 26.1 °F - 12.0 °F 55% 29.52 in 10.0 mi North - - N/A   Clear
2:53 PM 26.1 °F - 12.9 °F 58% 29.52 in 10.0 mi North - - N/A   Clear
3:53 PM 25.0 °F - 12.0 °F 58% 29.52 in 10.0 mi North - - N/A   Mostly Cloudy
4:53 PM 23.0 °F - 12.0 °F 63% 29.52 in 10.0 mi North - - N/A   Scattered Clouds
5:53 PM 21.9 °F - 12.0 °F 66% 29.53 in 10.0 mi North - - N/A   Clear
6:53 PM 21.0 °F - 12.0 °F 68% 29.55 in 10.0 mi North - - 0.00 in   Clear
7:53 PM 21.0 °F - 10.9 °F 65% 29.54 in 10.0 mi North - - N/A   Mostly Cloudy
8:53 PM 19.9 °F - 10.9 °F 68% 29.54 in 10.0 mi North - - N/A   Partly Cloudy
9:53 PM 19.9 °F - 10.9 °F 68% 29.55 in 10.0 mi North - - N/A   Clear
10:53 PM 21.0 °F - 10.9 °F 65% 29.57 in 10.0 mi North - - N/A   Overcast
11:53 PM 21.9 °F - 10.9 °F 63% 29.57 in 10.0 mi North - - 0.00 in   Overcast